GW5498 Weather Reports


time (UTC)temp
C
wind
direction
speed
KPH
gust
KPH
rain 1hr
cm
rain 24hr
cm
rain mn
cm
humidity
%
barometer
mb
20260502130419 18 244 3.2 9.7 0.00 0.00 0.00 52 1014.3
20260502123417 17 239 3.2 14.5 0.00 0.00 0.00 54 1014.7
20260502122917 17 0 3.2 12.9 0.00 0.00 0.00 55 1014.7
20260502122413 17 224 3.2 12.9 0.00 0.00 0.00 54 1014.8
20260502121913 17 250 4.8 11.3 0.00 0.00 0.00 52 1014.8
20260502121412 17 269 4.8 11.3 0.00 0.00 0.00 50 1014.9
20260502120912 17 235 4.8 12.9 0.00 0.00 0.00 53 1015.0
20260502120412 17 256 3.2 12.9 0.00 0.00 0.00 55 1015.1
20260502115908 17 247 3.2 14.5 0.00 0.00 0.00 57 1015.2
20260502115408 16 244 4.8 14.5 0.00 0.00 0.00 61 1015.3
20260502114908 16 272 4.8 12.9 0.00 0.00 0.00 58 1015.4
20260502114409 16 240 4.8 12.9 0.00 0.00 0.00 63 1015.6
20260502113908 16 234 4.8 16.1 0.00 0.00 0.00 62 1015.6
20260502113408 16 255 4.8 16.1 0.00 0.00 0.00 61 1015.8
20260502112908 16 287 4.8 14.5 0.00 0.00 0.00 63 1015.9
20260502112409 16 324 4.8 14.5 0.00 0.00 0.00 60 1015.9
20260502111907 16 288 4.8 14.5 0.00 0.00 0.00 62 1015.9
20260502111409 16 260 4.8 12.9 0.00 0.00 0.00 61 1015.8
20260502110407 15 307 6.4 14.5 0.00 0.00 0.00 61 1015.8
20260502105403 15 283 4.8 12.9 0.00 0.00 0.00 62 1015.8
20260502104403 15 245 6.4 14.5 0.00 0.00 0.00 64 1015.9
20260502103403 15 274 3.2 16.1 0.00 0.00 0.00 66 1015.9
20260502102903 15 240 4.8 16.1 0.00 0.00 0.00 67 1016.1
20260502102404 15 0 6.4 14.5 0.00 0.00 0.00 66 1016.0
20260502102120 15 221 6.4 16.1 0.00 0.00 0.00 66 1016.0
20260502101402 15 218 6.4 16.1 0.00 0.00 0.00 66 1016.0
20260502100902 15 220 3.2 14.5 0.00 0.00 0.00 63 1016.1
20260502100404 15 242 4.8 17.7 0.00 0.00 0.00 65 1016.1
20260502091403 15 0 3.2 11.3 0.00 0.00 0.00 69 1016.4
20260502090859 15 235 3.2 11.3 0.00 0.00 0.00 70 1016.4
20260502090359 15 237 1.6 8.0 0.00 0.00 0.00 71 1016.4
20260502071350 11 251 3.2 9.7 0.00 0.00 0.00 84 1016.3
20260502070847 11 257 3.2 8.0 0.00 0.00 0.00 86 1016.3
20260502070348 11 245 1.6 6.4 0.00 0.00 0.00 86 1016.3
20260502065847 11 248 1.6 8.0 0.00 0.00 0.00 88 1016.3
20260502065347 11 203 1.6 8.0 0.00 0.00 0.00 90 1016.2
20260502064848 10 256 3.2 8.0 0.00 0.00 0.00 92 1016.3
20260502064348 10 243 1.6 8.0 0.00 0.00 0.00 93 1016.3
20260502063847 10 0 1.6 6.4 0.00 0.00 0.00 94 1016.3
20260502063347 10 0 1.6 6.4 0.00 0.00 0.00 95 1016.3
20260502062848 10 0 1.6 6.4 0.00 0.00 0.00 95 1016.4
20260502062115 10 0 0.0 3.2 0.00 0.00 0.00 95 1016.3
20260502061336 10 0 1.6 11.3 0.00 0.00 0.00 95 1016.3
20260502060333 9 255 1.6 6.4 0.00 0.00 0.00 95 1016.4
20260502055333 9 0 3.2 6.4 0.00 0.00 0.00 95 1016.3
20260502054334 9 285 3.2 9.7 0.00 0.00 0.00 94 1016.3
20260502053833 9 253 3.2 8.0 0.00 0.00 0.00 94 1016.2
20260502053333 9 251 1.6 6.4 0.00 0.00 0.00 94 1016.2
20260502052833 9 0 1.6 6.4 0.00 0.00 0.00 94 1016.2
20260502052319 9 268 3.2 6.4 0.00 0.00 0.00 93 1016.2
20260502051819 9 257 1.6 6.4 0.00 0.00 0.00 93 1016.2
20260502051319 9 258 1.6 6.4 0.00 0.00 0.00 93 1016.2
20260502050819 9 249 1.6 4.8 0.00 0.00 0.00 93 1016.2
20260502050312 9 225 0.0 1.6 0.00 0.00 0.00 93 1016.2
20260502045703 9 0 0.0 3.2 0.00 0.00 0.00 93 1016.2
20260502045203 9 0 0.0 3.2 0.00 0.00 0.00 93 1016.2
20260502044703 9 264 0.0 3.2 0.00 0.00 0.00 93 1016.2
20260502044203 9 0 0.0 3.2 0.00 0.00 0.00 93 1016.2
20260502043704 9 291 0.0 3.2 0.00 0.00 0.00 93 1016.2
20260502043203 9 0 0.0 3.2 0.00 0.00 0.00 93 1016.2
20260502042703 9 0 0.0 0.0 0.00 0.00 0.00 93 1016.2
20260502042203 9 0 0.0 0.0 0.00 0.00 0.00 93 1016.2
20260502041704 10 0 0.0 4.8 0.00 0.00 0.00 93 1016.2
20260502041206 10 0 1.6 4.8 0.00 0.00 0.00 93 1016.3
20260502040653 10 284 0.0 4.8 0.00 0.00 0.00 93 1016.3
20260502040153 10 315 1.6 4.8 0.00 0.00 0.00 93 1016.3
20260502035653 10 314 1.6 6.4 0.00 0.00 0.00 93 1016.4
20260502035142 10 243 1.6 9.7 0.00 0.00 0.00 93 1016.3
20260502034640 10 245 1.6 9.7 0.00 0.00 0.00 93 1016.4
20260502034141 10 0 3.2 11.3 0.00 0.00 0.00 92 1016.5
20260502033639 10 250 4.8 11.3 0.00 0.00 0.00 92 1016.5
20260502033140 10 248 4.8 9.7 0.00 0.00 0.00 91 1016.5
20260502032901 10 267 4.8 9.7 0.00 0.00 0.00 91 1016.5
20260502032134 10 171 4.8 9.7 0.00 0.00 0.00 91 1016.5
20260502031638 10 242 3.2 11.3 0.00 0.00 0.00 90 1016.5
20260502031135 10 225 3.2 11.3 0.00 0.00 0.00 90 1016.6
20260502030635 11 222 3.2 9.7 0.00 0.00 0.00 90 1016.6
20260502030134 11 242 3.2 8.0 0.00 0.00 0.00 89 1016.7
20260502025635 11 249 3.2 8.0 0.00 0.00 0.00 89 1016.7
20260502025135 11 0 3.2 8.0 0.00 0.00 0.00 89 1016.6
20260502024634 11 219 1.6 6.4 0.00 0.00 0.00 88 1016.7
20260502024133 11 243 1.6 6.4 0.00 0.00 0.00 88 1016.7
20260502023633 11 0 1.6 6.4 0.00 0.00 0.00 87 1016.8
20260502023134 11 0 1.6 9.7 0.00 0.00 0.00 87 1016.8
20260502022631 11 249 3.2 9.7 0.00 0.00 0.00 87 1016.8
20260502022133 11 253 3.2 9.7 0.00 0.00 0.00 87 1016.8
20260502021849 11 239 3.2 9.7 0.00 0.00 0.00 87 1016.9
20260502021354 11 235 3.2 9.7 0.00 0.00 0.00 87 1016.9
20260502020857 12 253 3.2 9.7 0.00 0.00 0.00 86 1017.0
20260502020351 12 242 3.2 9.7 0.00 0.00 0.00 86 1016.9
20260502015854 12 242 3.2 9.7 0.00 0.00 0.00 85 1016.9
20260502015358 12 251 3.2 9.7 0.00 0.00 0.00 85 1017.0
20260502014849 12 246 3.2 11.3 0.00 0.00 0.00 85 1017.0
20260502014349 12 280 3.2 11.3 0.00 0.00 0.00 85 1017.0
20260502013624 12 286 3.2 11.3 0.00 0.00 0.00 85 1017.1
20260502013123 12 262 3.2 11.3 0.00 0.00 0.00 85 1017.2
20260502012623 12 251 4.8 11.3 0.00 0.00 0.00 85 1017.2
20260502012118 12 252 4.8 11.3 0.00 0.00 0.00 85 1017.4
20260502011619 12 0 4.8 12.9 0.00 0.00 0.00 85 1017.4
20260502011119 12 260 3.2 12.9 0.00 0.00 0.00 85 1017.4
20260502010619 12 0 3.2 12.9 0.00 0.00 0.00 85 1017.4
20260502010119 12 233 4.8 12.9 0.00 0.00 0.00 85 1017.4
20260502005619 12 248 4.8 12.9 0.00 0.00 0.00 85 1017.4
20260502005120 12 255 4.8 14.5 0.00 0.00 0.00 85 1017.3
20260502004618 12 291 3.2 14.5 0.00 0.00 0.00 86 1017.3
20260502004114 12 261 3.2 12.9 0.00 0.00 0.00 86 1017.4
20260502003616 12 267 3.2 12.9 0.00 0.00 0.00 86 1017.4
20260502003114 12 244 3.2 12.9 0.00 0.00 0.00 86 1017.5
20260502002614 12 254 3.2 9.7 0.00 0.00 0.00 86 1017.5
20260502002115 12 186 3.2 9.7 0.00 0.00 0.00 86 1017.6
20260502001615 12 274 1.6 9.7 0.00 0.00 0.00 86 1017.6
20260502001114 12 0 1.6 14.5 0.00 0.00 0.00 86 1017.7
20260502000614 12 275 3.2 14.5 0.00 0.00 0.00 86 1017.7
20260502000114 12 248 1.6 12.9 0.00 0.00 0.00 86 1017.7
20260501235614 12 280 1.6 9.7 0.00 0.00 0.00 86 1017.6
20260501235115 12 0 1.6 9.7 0.00 0.00 0.00 86 1017.6
20260501234615 12 0 1.6 8.0 0.00 0.00 0.00 86 1017.7
20260501234113 12 287 0.0 8.0 0.00 0.00 0.00 86 1017.7
20260501233612 12 0 0.0 9.7 0.00 0.00 0.00 86 1017.8
20260501233330 12 262 1.6 11.3 0.00 0.00 0.00 85 1017.8
20260501232610 12 249 1.6 11.3 0.00 0.00 0.00 85 1017.8
20260501232109 12 0 1.6 6.4 0.00 0.00 0.00 85 1017.8
20260501231609 12 0 1.6 8.0 0.00 0.00 0.00 85 1017.8
20260501231109 12 0 1.6 8.0 0.00 0.00 0.00 85 1017.8
20260501230608 12 0 1.6 9.7 0.00 0.00 0.00 85 1017.7
20260501230109 12 0 1.6 9.7 0.00 0.00 0.00 85 1017.7
20260501225608 12 278 1.6 8.0 0.00 0.00 0.00 85 1017.8
20260501225109 12 237 1.6 9.7 0.00 0.00 0.00 85 1017.8
20260501224608 12 260 1.6 9.7 0.00 0.00 0.00 85 1017.8
20260501224337 12 0 1.6 9.7 0.00 0.00 0.00 84 1017.8
20260501223608 12 0 1.6 9.7 0.00 0.00 0.00 84 1017.7
20260501223105 12 0 1.6 8.0 0.00 0.00 0.00 84 1017.7
20260501222604 13 0 3.2 11.3 0.00 0.00 0.00 83 1017.7
20260501222106 13 245 4.8 12.9 0.00 0.00 0.00 83 1017.7
20260501221605 13 267 3.2 12.9 0.00 0.00 0.00 82 1017.6
20260501221104 13 294 1.6 9.7 0.00 0.00 0.00 82 1017.6
20260501220605 13 340 1.6 11.3 0.00 0.00 0.00 81 1017.7
20260501220104 13 0 3.2 11.3 0.00 0.00 0.00 81 1017.6
20260501215608 13 0 1.6 9.7 0.00 0.00 0.00 80 1017.6
20260501215106 13 0 3.2 14.5 0.00 0.00 0.00 80 1017.6
20260501214604 13 0 3.2 14.5 0.00 0.00 0.00 80 1017.5
20260501214105 13 241 1.6 11.3 0.00 0.00 0.00 80 1017.6
20260501213606 13 263 3.2 11.3 0.00 0.00 0.00 79 1017.6
20260501213103 14 235 3.2 11.3 0.00 0.00 0.00 80 1017.6
20260501212603 14 252 3.2 11.3 0.00 0.00 0.00 79 1017.6
20260501212101 14 253 4.8 11.3 0.00 0.00 0.00 79 1017.5
20260501211602 14 232 4.8 12.9 0.00 0.00 0.00 79 1017.5
20260501211101 14 204 4.8 12.9 0.00 0.00 0.00 78 1017.5
20260501210600 15 241 4.8 14.5 0.00 0.00 0.00 77 1017.5
20260501210100 15 255 4.8 14.5 0.00 0.00 0.00 77 1017.4
20260501205601 15 242 4.8 14.5 0.00 0.00 0.00 76 1017.4
20260501205100 15 214 4.8 14.5 0.00 0.00 0.00 76 1017.4
20260501204600 15 262 4.8 14.5 0.00 0.00 0.00 76 1017.4
20260501204100 15 261 6.4 14.5 0.00 0.00 0.00 75 1017.4
20260501203601 15 226 4.8 14.5 0.00 0.00 0.00 75 1017.4
20260501203100 15 273 4.8 11.3 0.00 0.00 0.00 74 1017.4
20260501202600 15 261 4.8 14.5 0.00 0.00 0.00 74 1017.3
20260501202101 15 282 4.8 14.5 0.00 0.00 0.00 74 1017.3
20260501201601 15 0 4.8 14.5 0.00 0.00 0.00 74 1017.3
20260501201059 16 0 4.8 14.5 0.00 0.00 0.00 73 1017.3
20260501200558 16 236 4.8 14.5 0.00 0.00 0.00 73 1017.3
20260501200059 16 234 6.4 14.5 0.00 0.00 0.00 72 1017.3
20260501195555 16 272 4.8 14.5 0.00 0.00 0.00 71 1017.3
20260501195055 16 244 3.2 14.5 0.00 0.00 0.00 71 1017.3
20260501194556 16 0 3.2 14.5 0.00 0.00 0.00 70 1017.2
20260501194055 16 246 4.8 14.5 0.00 0.00 0.00 70 1017.2
20260501193555 16 230 6.4 14.5 0.00 0.00 0.00 70 1017.2
20260501193055 16 303 4.8 14.5 0.00 0.00 0.00 70 1017.2
20260501192556 16 271 4.8 14.5 0.00 0.00 0.00 69 1017.2
20260501192054 16 263 6.4 14.5 0.00 0.00 0.00 69 1017.2
20260501191554 17 258 6.4 16.1 0.00 0.00 0.00 69 1017.2
20260501191054 17 272 6.4 16.1 0.00 0.00 0.00 68 1017.2
20260501190554 17 258 8.0 19.3 0.00 0.00 0.00 68 1017.1
20260501190054 17 259 8.0 19.3 0.00 0.00 0.00 67 1017.1
20260501185555 18 261 8.0 17.7 0.00 0.00 0.00 65 1017.0
20260501185055 18 249 6.4 16.1 0.00 0.00 0.00 64 1016.9
20260501184554 18 250 4.8 16.1 0.00 0.00 0.00 62 1016.9
20260501184316 18 294 6.4 16.1 0.00 0.00 0.00 62 1016.8
20260501183556 19 255 6.4 16.1 0.00 0.00 0.00 61 1016.8
20260501183315 19 240 4.8 16.1 0.00 0.00 0.00 61 1016.8
20260501182556 20 251 4.8 16.1 0.00 0.00 0.00 60 1016.6
20260501182054 20 283 4.8 12.9 0.00 0.00 0.00 60 1016.5
20260501181553 20 263 4.8 14.5 0.00 0.00 0.00 59 1016.5
20260501181051 21 261 6.4 16.1 0.00 0.00 0.00 58 1016.4
20260501180556 21 273 8.0 17.7 0.00 0.00 0.00 57 1016.4
20260501180056 22 295 8.0 17.7 0.00 0.00 0.00 54 1016.3
20260501175551 22 231 8.0 14.5 0.00 0.00 0.00 53 1016.2
20260501175102 22 194 8.0 14.5 0.00 0.00 0.00 52 1016.2
20260501174553 22 243 6.4 14.5 0.00 0.00 0.00 51 1016.2
20260501174052 22 251 4.8 14.5 0.00 0.00 0.00 50 1016.2
20260501173552 22 237 4.8 12.9 0.00 0.00 0.00 51 1016.2
20260501173051 22 258 6.4 14.5 0.00 0.00 0.00 51 1016.3
20260501172552 22 249 6.4 14.5 0.00 0.00 0.00 50 1016.2
20260501172050 22 258 4.8 11.3 0.00 0.00 0.00 49 1016.3
20260501171550 22 240 4.8 9.7 0.00 0.00 0.00 49 1016.3
20260501171051 22 206 3.2 9.7 0.00 0.00 0.00 49 1016.3
20260501170551 22 214 3.2 11.3 0.00 0.00 0.00 48 1016.3
20260501170050 22 0 3.2 11.3 0.00 0.00 0.00 48 1016.4
20260501165551 22 114 4.8 12.9 0.00 0.00 0.00 48 1016.4
20260501165050 22 205 6.4 14.5 0.00 0.00 0.00 48 1016.4
20260501164813 22 236 6.4 14.5 0.00 0.00 0.00 48 1016.4
20260501164315 22 258 4.8 14.5 0.00 0.00 0.00 48 1016.5
20260501163551 22 238 3.2 11.3 0.00 0.00 0.00 48 1016.5
20260501163050 23 278 3.2 11.3 0.00 0.00 0.00 48 1016.5
20260501162547 22 233 4.8 11.3 0.00 0.00 0.00 48 1016.5
20260501162317 22 230 4.8 14.5 0.00 0.00 0.00 48 1016.6
20260501161811 23 217 6.4 14.5 0.00 0.00 0.00 48 1016.6
20260501161046 23 263 6.4 12.9 0.00 0.00 0.00 48 1016.5
20260501160811 23 234 4.8 14.5 0.00 0.00 0.00 48 1016.7
20260501160047 23 174 6.4 14.5 0.00 0.00 0.00 47 1016.7
20260501155547 23 249 4.8 14.5 0.00 0.00 0.00 47 1016.7
20260501155309 22 258 4.8 12.9 0.00 0.00 0.00 48 1016.8
20260501154808 22 294 3.2 12.9 0.00 0.00 0.00 47 1016.9
20260501154047 22 237 3.2 12.9 0.00 0.00 0.00 48 1016.9
20260501153547 22 76 4.8 12.9 0.00 0.00 0.00 48 1017.0
20260501153048 22 221 3.2 9.7 0.00 0.00 0.00 48 1017.1
20260501152548 22 254 4.8 14.5 0.00 0.00 0.00 47 1017.1
20260501151810 22 256 6.4 14.5 0.00 0.00 0.00 48 1017.2
20260501150810 23 267 6.4 14.5 0.00 0.00 0.00 46 1017.3